This is the latest recevied weather packets stored in our database for station/object KC0AFB. If no packets are shown the sender has not sent any weather packets the latest 10 day(s).
| Time | Temp. | Humidity | Pressure | Rain* | Wind** | Luminosity | Snow |
|---|---|---|---|---|---|---|---|
| 1777733922 | 13.89° C | 45% | 1013.2 hPa | 0 mm | - | 268 W/m² | - |
| 1777733619 | 13.33° C | 46% | 1013.1 hPa | 0 mm | - | 514 W/m² | - |
| 1777733315 | 12.22° C | 49% | 1013.5 hPa | 0 mm | - | 311 W/m² | - |
| 1777733012 | 12.22° C | 48% | 1013.9 hPa | 0 mm | - | 166 W/m² | - |
| 1777732708 | 12.22° C | 48% | 1013.8 hPa | 0 mm | - | 122 W/m² | - |
| 1777732406 | 12.22° C | 47% | 1013.6 hPa | 0 mm | - | 121 W/m² | - |
| 1777732103 | 12.22° C | 47% | 1013.7 hPa | 0 mm | - | 133 W/m² | - |
| 1777731800 | 11.67° C | 49% | 1013.6 hPa | 0 mm | - | 180 W/m² | - |
| 1777731497 | 11.67° C | 48% | 1013.6 hPa | 0 mm | - | 194 W/m² | - |
| 1777731196 | 11.67° C | 50% | 1013.6 hPa | 0 mm | - | 216 W/m² | - |
| 1777730893 | 11.67° C | 51% | 1013.5 hPa | 0 mm | - | 219 W/m² | - |
| 1777730590 | 11.67° C | 51% | 1013.7 hPa | 0 mm | - | 234 W/m² | - |
| 1777730286 | 11.11° C | 51% | 1013.9 hPa | 0 mm | - | 245 W/m² | - |
| 1777729983 | 11.11° C | 51% | 1013.9 hPa | 0 mm | - | 166 W/m² | - |
| 1777729679 | 11.11° C | 50% | 1014 hPa | 0 mm | - | 245 W/m² | - |
| 1777729376 | 10.56° C | 50% | 1013.9 hPa | 0 mm | - | 154 W/m² | - |
| 1777729072 | 10° C | 53% | 1014.2 hPa | 0 mm | - | 165 W/m² | - |
| 1777728769 | 10° C | 51% | 1014.4 hPa | 0 mm | - | 100 W/m² | - |
| 1777728466 | 10° C | 55% | 1014.8 hPa | 0 mm | - | 99 W/m² | - |
| 1777728163 | 9.44° C | 55% | 1015.3 hPa | 0 mm | - | 85 W/m² | - |
| 1777727860 | 8.89° C | 56% | 1015.3 hPa | 0 mm | - | 107 W/m² | - |
| 1777727557 | 8.89° C | 57% | 1015.7 hPa | 0 mm | - | 100 W/m² | - |
| 1777727254 | 8.33° C | 58% | 1015.6 hPa | 0 mm | - | 81 W/m² | - |
| 1777726952 | 8.33° C | 56% | 1015.8 hPa | 0 mm | - | 73 W/m² | - |
| 1777726648 | 8.33° C | 57% | 1016 hPa | 0 mm | - | 64 W/m² | - |
* Rain latest hour (hover to see other rain measurements)
** Current wind speed in m/s (hover to see current wind gust speed)